Location: York
(31.8935°S, 116.7682°E)
Time: 17:51:00
(UTC+08:00)

deb Explorer IX - Pass Details

Date: 29 September 2022
Orbit: 533 x 1057 km, 38.8° (Epoch: 30 November)

Event Time Altitude Azimuth Distance (km) Brightness Sun altitude
Rises 22:53:55 0° 250° (WSW) 3,055 - -51.8°
Reaches altitude 10° 22:56:37 10° 241° (WSW) 2,053 - -52.1°
Maximum altitude 23:00:56 36° 174° (S) 960 - -52.5°
Drops below altitude 10° 23:04:50 10° 106° (ESE) 1,850 - -52.9°
Sets 23:07:09 0° 97° (E) 2,709 - -53.1°
